Home > Weather > Catania > Past weeks

Flag for Italy Past Weather in Catania, Italy — Yesterday and Last 2 Weeks

Now
68 °F

Clear.


Feels Like: 68 °F
Forecast: 68 / 87 °F
Wind: 3 mph from West

Location: Catania / Fontanarossa

Current Time: Jul 25, 2016 at 6:26:11 AM

Latest Report: Jul 25, 2016 at 5:50 AM


Visibility: 10 mi

Pressure: 29.92 "Hg

Humidity: 60%

Dew Point: 54 °F

Location of CataniaLocation

Past Weather in Catania — Graph

°F

Catania Temperature Yesterday

Maximum temperature yesterday: 88 °F (at 12:50 PM)
Minimum temperature yesterday: 64 °F (at 4:50 AM)
Average temperature yesterday: 78 °F

High & Low Weather Summary for the Past Weeks

 TemperatureHumidityPressure
High95 °F (Jul 13, 10:20 AM)100% (Jul 23, 3:50 AM)30.36 "Hg (Jul 23, 3:50 AM)
Low50 °F (Jul 23, 3:50 AM)15% (Jul 13, 10:20 AM)29.77 "Hg (Jul 15, 2:50 PM)
Average78 °F49%29.95 "Hg
* Reported Jul 10 4:20 AM — Jul 25 4:50 AM, Catania, Weather by CustomWeather, © 2016

Note: Actual official high and low records may vary slightly from our data, if they occured in-between our weather recording intervals... More about our weather records

Advertising

Catania Weather History for the Previous 24 Hours

Scroll right to see more
 ConditionsComfort  
Time TempWeatherWind HumidityBarometerVisibility
4:50 AM
Mon, Jul 25
66 °FClear.5 mph64%29.92 "Hg10 mi
4:20 AM66 °FClear.3 mph68%29.92 "Hg10 mi
3:20 AM70 °FClear.5 mph60%29.92 "Hg10 mi
2:50 AM70 °FPassing clouds.3 mph64%29.92 "HgN/A
1:50 AM70 °FClear.5 mph69%29.95 "Hg10 mi
1:20 AM72 °FClear.6 mph65%29.95 "Hg10 mi
12:50 AM72 °FClear.5 mph69%29.95 "Hg10 mi
12:20 AM73 °FClear.6 mph65%29.95 "Hg10 mi
11:50 PM
Sun, Jul 24
73 °FClear.3 mph65%29.95 "Hg10 mi
11:20 PM73 °FClear.5 mph65%29.95 "Hg10 mi
10:50 PM75 °FClear.3 mph61%29.95 "Hg10 mi
10:20 PM77 °FClear.1 mph65%29.95 "Hg10 mi
9:50 PM79 °FClear.6 mph58%29.95 "Hg10 mi
9:20 PM81 °FClear.8 mph54%29.95 "Hg10 mi
8:50 PM77 °FSunny.6 mph65%29.95 "Hg10 mi
8:20 PM81 °FSunny.7 mph51%29.95 "Hg10 mi
7:50 PM81 °FSunny.7 mph54%29.95 "Hg10 mi
7:20 PM82 °FSunny.6 mph40%29.95 "Hg10 mi
6:50 PM82 °FPassing clouds.8 mph45%29.92 "HgN/A
6:20 PM82 °FPassing clouds.9 mph58%29.92 "HgN/A
5:50 PM81 °FPassing clouds.14 mph62%29.92 "HgN/A
5:20 PM82 °FPassing clouds.13 mph58%29.95 "HgN/A
4:50 PM82 °FPassing clouds.15 mph58%29.95 "HgN/A
4:20 PM84 °FPassing clouds.17 mph48%29.92 "HgN/A
3:50 PM86 °FPassing clouds.15 mph29%29.95 "HgN/A
3:20 PM84 °FPassing clouds.14 mph37%29.95 "HgN/A
2:50 PM84 °FPassing clouds.14 mph51%29.95 "HgN/A
2:20 PM86 °FPassing clouds.10 mph35%29.95 "HgN/A
1:50 PM86 °FPassing clouds.14 mph40%29.95 "HgN/A
1:20 PM86 °FPassing clouds.12 mph38%29.95 "HgN/A
12:50 PM88 °FPassing clouds.7 mph31%29.95 "HgN/A
12:20 PM86 °FPassing clouds.6 mph38%29.95 "HgN/A
11:50 AM86 °FPassing clouds.8 mph31%29.95 "HgN/A
11:20 AM84 °FPassing clouds.7 mph33%29.98 "HgN/A
10:50 AM84 °FPassing clouds.7 mph33%29.98 "HgN/A
10:20 AM84 °FPassing clouds.7 mph29%29.98 "HgN/A
9:50 AM86 °FSunny.2 mph27%29.95 "Hg10 mi
9:20 AM84 °FSunny.2 mph29%29.95 "Hg10 mi
8:50 AM81 °FPassing clouds.6 mph30%29.95 "HgN/A
8:20 AM77 °FSunny.6 mph39%29.95 "Hg10 mi
7:50 AM72 °FSunny.5 mph50%29.95 "Hg10 mi
7:20 AM68 °FPassing clouds.3 mph56%29.95 "HgN/A
6:50 AM64 °FClear.6 mph68%29.95 "Hg10 mi
Weather by CustomWeather, © 2016

See weather overviewHow to use our weather pages